Tracking 30107 objects as of 19-Jan-2025
HD Live streaming from Space Station
objects crossing your sky now

ONEWEB-0069

Track ONEWEB-0069 now!
10-day predictions
ONEWEB-0069 is classified as:


NORAD ID: 45430
Int'l Code: 2020-020G
Perigee: 1,223.5 km
Apogee: 1,226.2 km
Inclination: 87.9 °
Period: 109.8 minutes
Semi major axis: 7595 km
RCS: Unknown
Launch date: March 21, 2020
Source: United Kingdom (UK)
Launch site: TYURATAM MISSILE AND SPACE COMPLEX (TTMTR)
Your satellite tracking list
Your tracking list is empty




NASA's NSSDC Master Catalog

Two Line Element Set (TLE):
1 45430U 20020G   25018.51820181  .00000364  00000-0  99117-3 0  9995
2 45430  87.8910 123.6355 0001791 109.1431 250.9891 13.11414954235213
Source of the keplerian elements: AFSPC